[[{"header":{"parameterUnit":"m.s-1","parameterCategory":2,"la1":30.2992,"la2":30.254,"lo1":-89.0895,"lo2":-89.0443,"dy":0.0025,"dx":0.0025,"nx":19,"ny":19,"refTime":"2026-05-08T03:00:00:Z","depth":"0","parameterNumber":2,"parameterNumberName":"U-component_of_CURRENTS"},"data":[0,0,0,0.0277,0.0277,0.0279,0.0279,0.0245,0.0244,0,0,0,0,0,0,0,0,0,0,0,0.027,0.027,0.0277,0.0277,0.0279,0.0279,0.0245,0.0244,0,0,0,0,0,0,0,0,0,0,0,0.027,0.027,0.027,0.0277,0.0279,0.0279,0.0245,0.0252,0,0,0,0,0,0,0,0,0,0,0.0254,0.0252,0.027,0.027,0.0277,0.0279,0.0279,0.0252,0.0251,0.0234,0,0.0234,0,0.0242,0.0242,0.0241,0,0,0,0.0273,0.0253,0.0258,0.027,0.0277,0.0279,0.0277,0.0252,0.0251,0.0233,0.0234,0.0233,0.0241,0.0241,0.0241,0.0205,0.0205,0,0,0.0273,0.0266,0.0259,0.0257,0.0276,0.0277,0.0277,0.0251,0.0246,0.0234,0.0232,0.0241,0.0241,0.0241,0.0205,0.0205,0,0,0,0.0275,0.0266,0.0272,0.0258,0.0263,0.0277,0.0278,0.0247,0.025,0.0232,0.024,0.0241,0.024,0.0205,0.0205,0.0297,0,0,0,0.0275,0.0268,0.0271,0.0267,0.0264,0.026,0.0273,0.0252,0.0249,0.024,0.0241,0.024,0.0205,0.0205,0.0295,0.047,0,0,0,0.0271,0.0267,0.0268,0.0266,0.0271,0.0261,0.0262,0.0251,0.0254,0.0241,0.024,0.0205,0.0205,0.0293,0.0461,0.0801,0,0,0,0.0263,0.0251,0.0268,0.0254,0.0271,0.0261,0.0263,0.0247,0.0234,0.0241,0.0205,0.0205,0.0292,0.0456,0.0791,0.1057,0.1125,0,0,0.0242,0.0248,0.024,0.0255,0.0241,0.0261,0.0259,0.0243,0.0227,0.0211,0.021,0.0296,0.0461,0.0799,0.1044,0.1114,0,0,0,0.0229,0.022,0.0218,0.0215,0.0221,0.0272,0.0237,0.0254,0.0268,0.022,0.0265,0.0369,0.0581,0.0716,0.0769,0.0918,0.0204,0.0204,0.0204,0.0196,0.0199,0.0186,0.0193,0.021,0.0256,0.0327,0.0345,0.0267,0.0293,0.0415,0.0708,0.0837,0.0885,0.1027,0.031,0.0311,0.0311,0.0311,0.0154,0.0153,0.0178,0.0173,0.0246,0.0285,0.0419,0.0439,0.0667,0.0478,0.0677,0.0766,0.0951,0.1081,0.0317,0.0316,0.0315,0.0315,0.0314,0.0114,0.0125,0.012,0.0196,0.0322,0.0433,0.0766,0.0828,0.0864,0.102,0.1337,0.1337,0.1503,0.1168,0.117,0.1172,0.1174,0.1176,0.1177,0.0101,0.0095,0.0236,0.0293,0.0482,0.076,0.1072,0.1311,0.1606,0.1592,0.1594,0.1635,0.0976,0.1002,0.1211,0.1205,0.12,0.1197,0.1195,0.0159,0.021,0.0456,0.0643,0.1028,0.1315,0.1559,0.2039,0.2303,0.2497,0.2432,0.1925,0.2002,0.1956,0.2007,0.2467,0.2467,0.2467,0.2467,0.0312,0.0303,0.0811,0.1188,0.1516,0.1657,0.2126,0.2446,0.2841,0.3043,0.3032,0.2797,0.2739,0.2842,0.2776,0.2834,0.3494,0.3495,0.3496,0.0532,0.0673,0.1118,0.1409,0.177,0.1968,0.2242,0.2573,0.3229,0.3539,0.3206,0.3163,0.2789,0.2686,0.2796,0.2692,0.2766,0,0]},{"header":{"parameterUnit":"m.s-1","parameterCategory":2,"la1":30.2992,"la2":30.254,"lo1":-89.0895,"lo2":-89.0443,"dy":0.0025,"dx":0.0025,"nx":19,"ny":19,"refTime":"2026-05-08T03:00:00:Z","depth":"0","parameterNumber":3,"parameterNumberName":"V-component_of_CURRENTS"},"data":[0,0,0,-0.1882,-0.1882,-0.1841,-0.1841,-0.1747,-0.1746,0,0,0,0,0,0,0,0,0,0,0,-0.191,-0.191,-0.1882,-0.1882,-0.1841,-0.1841,-0.1747,-0.1746,0,0,0,0,0,0,0,0,0,0,0,-0.1909,-0.191,-0.1911,-0.1882,-0.1841,-0.1841,-0.1747,-0.1784,0,0,0,0,0,0,0,0,0,0,-0.1827,-0.1855,-0.191,-0.1911,-0.1882,-0.1841,-0.1841,-0.1786,-0.1782,-0.176,0,-0.178,0,-0.1763,-0.1741,-0.1741,0,0,0,-0.1862,-0.1859,-0.186,-0.1911,-0.1882,-0.1842,-0.1854,-0.1784,-0.1779,-0.1754,-0.1779,-0.1775,-0.1762,-0.1741,-0.174,-0.1622,-0.1621,0,0,-0.1865,-0.1881,-0.1864,-0.1858,-0.1904,-0.1856,-0.1853,-0.1781,-0.1782,-0.1778,-0.1772,-0.176,-0.174,-0.1739,-0.1623,-0.1622,0,0,0,-0.1884,-0.1883,-0.1886,-0.1862,-0.1859,-0.1855,-0.1852,-0.1785,-0.1791,-0.1771,-0.1759,-0.174,-0.1739,-0.1623,-0.1622,-0.1379,0,0,0,-0.1885,-0.1896,-0.1888,-0.1893,-0.1862,-0.1824,-0.1858,-0.1796,-0.1787,-0.176,-0.1739,-0.1738,-0.1624,-0.1623,-0.1387,-0.1169,0,0,0,-0.1906,-0.1897,-0.1906,-0.1895,-0.1886,-0.1826,-0.1825,-0.1793,-0.178,-0.1741,-0.1738,-0.1625,-0.1623,-0.1394,-0.1186,-0.0966,0,0,0,-0.1903,-0.1899,-0.1907,-0.1883,-0.1887,-0.1815,-0.1825,-0.1781,-0.1749,-0.1739,-0.1624,-0.1622,-0.1397,-0.1197,-0.0978,-0.0827,-0.0758,0,0,-0.1887,-0.1898,-0.1877,-0.1882,-0.177,-0.1818,-0.1667,-0.1651,-0.1712,-0.1644,-0.1641,-0.1384,-0.1187,-0.0969,-0.0734,-0.0666,0,0,0,-0.1861,-0.1827,-0.1807,-0.1742,-0.1717,-0.1556,-0.1593,-0.1574,-0.1496,-0.1689,-0.142,-0.1301,-0.1171,-0.1109,-0.1057,-0.1125,-0.1615,-0.1615,-0.1615,-0.1787,-0.1745,-0.1632,-0.1551,-0.1481,-0.1389,-0.1266,-0.1238,-0.1384,-0.1324,-0.1134,-0.0829,-0.0768,-0.0725,-0.08,-0.1231,-0.123,-0.1229,-0.1229,-0.1638,-0.1524,-0.1426,-0.1292,-0.1142,-0.0994,-0.0861,-0.0897,-0.0717,-0.0932,-0.0822,-0.0894,-0.0651,-0.0754,-0.1214,-0.1216,-0.1218,-0.122,-0.1221,-0.1531,-0.145,-0.1368,-0.1081,-0.0787,-0.0646,-0.0278,-0.0294,-0.0397,-0.0275,-0.0237,-0.0242,-0.0295,-0.0251,-0.0249,-0.0247,-0.0245,-0.0244,-0.0243,-0.142,-0.1326,-0.1066,-0.0809,-0.0532,-0.017,0.0093,0.0223,0.0266,0.0137,0.0135,-0.0183,-0.0529,-0.0525,-0.0213,-0.0218,-0.0222,-0.0225,-0.0227,-0.1146,-0.112,-0.0738,-0.0463,0.0117,0.0508,0.0649,0.0862,0.0917,0.0952,0.0509,0.0336,0.0308,0.0261,0.0282,0.0786,0.0786,0.0786,0.0786,-0.091,-0.0895,-0.0292,0.0185,0.0669,0.0897,0.1279,0.1335,0.1152,0.1041,0.0885,0.0627,0.0589,0.0556,0.0503,0.0518,0.1071,0.1071,0.1071,-0.056,-0.0467,0.0062,0.0429,0.0979,0.1265,0.1532,0.1655,0.1378,0.1065,0.078,0.0768,0.0349,0.0295,0.0186,0.0116,0.0117,0,0]}],[{"header":{"parameterUnit":"m.s-1","parameterCategory":2,"la1":30.2992,"la2":30.254,"lo1":-89.0895,"lo2":-89.0443,"dy":0.0025,"dx":0.0025,"nx":19,"ny":19,"refTime":"2026-05-08T03:00:00:Z","depth":"2","parameterNumber":2,"parameterNumberName":"U-component_of_CURRENTS"},"data":[0,0,0,0.0875,0.0876,0.0898,0.0898,0.0922,0.0922,0,0,0,0,0,0,0,0,0,0,0,0.0865,0.0865,0.0875,0.0876,0.0898,0.0898,0.0922,0.0922,0,0,0,0,0,0,0,0,0,0,0,0.0864,0.0865,0.0865,0.0876,0.0898,0.0898,0.0922,0.0905,0,0,0,0,0,0,0,0,0,0,0.0884,0.0877,0.0865,0.0865,0.0876,0.0898,0.0898,0.0904,0.0906,0.0912,0,0.0917,0,0.0924,0.0924,0.0924,0,0,0,0.0871,0.0875,0.0882,0.0865,0.0876,0.0898,0.0886,0.0905,0.0907,0.0915,0.0918,0.0919,0.0924,0.0924,0.0924,0.0939,0.0939,0,0,0.087,0.0867,0.0881,0.0884,0.0885,0.0886,0.0887,0.0906,0.0909,0.0918,0.0919,0.0925,0.0924,0.0924,0.0939,0.0939,0,0,0,0.087,0.0866,0.0873,0.0882,0.0889,0.0887,0.0888,0.0908,0.0911,0.092,0.0925,0.0924,0.0925,0.0939,0.0939,0.0876,0,0,0,0.0869,0.0866,0.0872,0.0871,0.0889,0.09,0.0889,0.0909,0.0912,0.0925,0.0924,0.0925,0.0939,0.0939,0.0878,0.0911,0,0,0,0.0863,0.0866,0.0869,0.087,0.0883,0.09,0.0903,0.091,0.0915,0.0924,0.0925,0.0939,0.0939,0.0879,0.0912,0.1092,0,0,0,0.0858,0.0854,0.0869,0.0866,0.0882,0.0888,0.0903,0.0909,0.0915,0.0925,0.0939,0.0939,0.088,0.0913,0.1089,0.1288,0.1316,0,0,0.0847,0.0853,0.085,0.0864,0.0833,0.0884,0.0863,0.0878,0.0916,0.0932,0.0932,0.0877,0.0912,0.1091,0.128,0.1309,0,0,0,0.0841,0.081,0.0817,0.0797,0.083,0.083,0.0847,0.0871,0.0885,0.092,0.0892,0.0919,0.1034,0.1147,0.1169,0.0938,0.0938,0.0938,0.0938,0.0768,0.0766,0.0722,0.0707,0.073,0.0778,0.081,0.0843,0.0856,0.0859,0.0874,0.0982,0.1095,0.1116,0.0853,0.0853,0.0852,0.0852,0.0852,0.0648,0.0591,0.0605,0.0554,0.06,0.0608,0.0729,0.0767,0.0896,0.0842,0.0957,0.1082,0.1137,0.0847,0.0848,0.0849,0.0849,0.085,0.085,0.0505,0.0487,0.0452,0.044,0.0472,0.0573,0.0756,0.0826,0.0892,0.0965,0.1243,0.1247,0.1037,0.1066,0.1067,0.1068,0.1068,0.1069,0.107,0.039,0.0357,0.0398,0.0385,0.0469,0.0621,0.0838,0.0996,0.1219,0.1266,0.1269,0.1059,0.1052,0.1056,0.1083,0.1081,0.1079,0.1078,0.1077,0.0294,0.0347,0.0425,0.0505,0.0697,0.0884,0.1058,0.143,0.1599,0.175,0.1486,0.1472,0.1564,0.1548,0.1566,0.1726,0.1726,0.1726,0.1726,0.0334,0.0327,0.0571,0.0754,0.093,0.1047,0.1395,0.1562,0.1717,0.1664,0.1664,0.1555,0.1535,0.1617,0.1599,0.1614,0.1786,0.1785,0.1784,0.043,0.0493,0.0718,0.0853,0.1047,0.1223,0.1459,0.152,0.1563,0.1763,0.143,0.1777,0.1617,0.1584,0.1708,0.1679,0.1704,0,0]},{"header":{"parameterUnit":"m.s-1","parameterCategory":2,"la1":30.2992,"la2":30.254,"lo1":-89.0895,"lo2":-89.0443,"dy":0.0025,"dx":0.0025,"nx":19,"ny":19,"refTime":"2026-05-08T03:00:00:Z","depth":"2","parameterNumber":3,"parameterNumberName":"V-component_of_CURRENTS"},"data":[0,0,0,-0.0327,-0.033,-0.0443,-0.0443,-0.0508,-0.0508,0,0,0,0,0,0,0,0,0,0,0,-0.0292,-0.0293,-0.0327,-0.033,-0.0443,-0.0443,-0.0508,-0.0508,0,0,0,0,0,0,0,0,0,0,0,-0.0291,-0.0293,-0.0294,-0.033,-0.0443,-0.0443,-0.0507,-0.044,0,0,0,0,0,0,0,0,0,0,-0.0339,-0.0326,-0.0293,-0.0294,-0.0331,-0.0442,-0.0443,-0.0437,-0.0444,-0.0437,0,-0.047,0,-0.0492,-0.0511,-0.0512,0,0,0,-0.0321,-0.0321,-0.0349,-0.0295,-0.0332,-0.0442,-0.0389,-0.0442,-0.0449,-0.0445,-0.0471,-0.0474,-0.0493,-0.0512,-0.0512,-0.0534,-0.0534,0,0,-0.0315,-0.031,-0.0344,-0.0354,-0.0381,-0.0386,-0.0393,-0.0447,-0.0463,-0.0472,-0.0476,-0.0494,-0.0512,-0.0512,-0.0534,-0.0534,0,0,0,-0.0303,-0.0306,-0.0334,-0.0351,-0.0379,-0.0389,-0.0397,-0.046,-0.047,-0.0477,-0.0495,-0.0512,-0.0513,-0.0534,-0.0534,-0.0437,0,0,0,-0.0299,-0.03,-0.0331,-0.0329,-0.0379,-0.0433,-0.041,-0.0466,-0.0473,-0.0495,-0.0512,-0.0513,-0.0534,-0.0534,-0.044,-0.0373,0,0,0,-0.0283,-0.0298,-0.0317,-0.0329,-0.0381,-0.0433,-0.0446,-0.0469,-0.0484,-0.0512,-0.0514,-0.0535,-0.0534,-0.0442,-0.0379,-0.0372,0,0,0,-0.0265,-0.0283,-0.0317,-0.0339,-0.038,-0.0402,-0.0446,-0.0487,-0.0511,-0.0513,-0.0534,-0.0534,-0.0443,-0.0382,-0.0375,-0.0316,-0.0297,0,0,-0.0265,-0.0284,-0.0291,-0.0323,-0.0334,-0.0384,-0.0381,-0.0451,-0.0499,-0.051,-0.0511,-0.0439,-0.0379,-0.0373,-0.0298,-0.028,0,0,0,-0.0273,-0.0286,-0.0293,-0.0319,-0.034,-0.0337,-0.0408,-0.0422,-0.0452,-0.0516,-0.046,-0.0425,-0.0425,-0.0396,-0.0382,-0.0533,-0.0533,-0.0533,-0.0533,-0.0252,-0.0265,-0.0271,-0.0289,-0.0293,-0.0318,-0.0309,-0.0342,-0.0405,-0.0408,-0.0362,-0.0309,-0.0277,-0.0266,-0.0396,-0.0395,-0.0395,-0.0395,-0.0394,-0.0249,-0.0257,-0.0255,-0.0266,-0.0248,-0.0238,-0.0212,-0.0241,-0.0231,-0.0288,-0.0294,-0.0314,-0.0244,-0.0387,-0.0389,-0.039,-0.039,-0.0391,-0.0391,-0.0254,-0.0255,-0.0266,-0.0245,-0.0197,-0.0168,-0.0084,-0.0094,-0.0137,-0.0118,-0.0155,-0.0156,-0.0243,-0.0153,-0.0153,-0.0152,-0.0152,-0.0152,-0.0152,-0.0256,-0.0261,-0.0215,-0.0204,-0.0146,-0.0068,-0.0006,0.0011,-0.0002,-0.0031,-0.0033,-0.0228,-0.0236,-0.0232,-0.0146,-0.0147,-0.0148,-0.0148,-0.0149,-0.0255,-0.0229,-0.0156,-0.0101,0.0019,0.0154,0.0159,0.0212,0.0169,0.0175,-0.0,-0.0006,-0.0036,-0.0048,-0.0041,0.0089,0.0089,0.0089,0.0089,-0.021,-0.0208,-0.005,0.0069,0.0185,0.0276,0.0486,0.0492,0.035,0.0228,0.0222,0.0193,0.018,0.0158,0.0141,0.015,0.033,0.033,0.033,-0.0149,-0.011,0.0027,0.013,0.0272,0.0434,0.0704,0.0757,0.0437,0.0339,0.0254,0.0107,0.0044,0.0032,-0.0024,-0.0043,-0.0037,0,0]}],[{"header":{"parameterUnit":"m.s-1","parameterCategory":2,"la1":30.2992,"la2":30.254,"lo1":-89.0895,"lo2":-89.0443,"dy":0.0025,"dx":0.0025,"nx":19,"ny":19,"refTime":"2026-05-08T03:00:00:Z","depth":"4","parameterNumber":2,"parameterNumberName":"U-component_of_CURRENTS"},"data":[0,0,0,0.0515,0.0517,0.0623,0.0623,0.0739,0.074,0,0,0,0,0,0,0,0,0,0,0,0.0482,0.0483,0.0514,0.0517,0.0623,0.0623,0.0739,0.074,0,0,0,0,0,0,0,0,0,0,0,0.0481,0.0482,0.0483,0.0517,0.0623,0.0623,0.0739,0.0664,0,0,0,0,0,0,0,0,0,0,0.0564,0.0533,0.0482,0.0483,0.0518,0.0622,0.0623,0.0661,0.0669,0.0685,0,0.0706,0,0.0723,0.0747,0.0747,0,0,0,0.052,0.0527,0.0557,0.0484,0.0519,0.0622,0.0576,0.0666,0.0675,0.0695,0.0708,0.0712,0.0725,0.0748,0.0748,0.0946,0.0947,0,0,0.0514,0.0499,0.0551,0.0563,0.0553,0.0572,0.0579,0.0671,0.0682,0.0708,0.0715,0.0727,0.0748,0.0749,0.0945,0.0946,0,0,0,0.0495,0.0495,0.0524,0.0558,0.0578,0.0575,0.0583,0.0678,0.0688,0.0717,0.0729,0.0749,0.075,0.0943,0.0945,0.0943,0,0,0,0.0492,0.0484,0.0521,0.0513,0.0576,0.0631,0.0587,0.0682,0.0693,0.0728,0.0749,0.0751,0.0942,0.0944,0.094,0.0929,0,0,0,0.0476,0.0482,0.0497,0.0512,0.0557,0.063,0.0646,0.0685,0.07,0.0748,0.0752,0.0941,0.0944,0.0937,0.0926,0.0999,0,0,0,0.0453,0.0471,0.0497,0.0529,0.0556,0.0637,0.0646,0.0722,0.0769,0.075,0.0942,0.0945,0.0936,0.0924,0.0996,0.0796,0,0,0,0.0458,0.0472,0.0492,0.0517,0.0586,0.0622,0.0743,0.0813,0.0826,0.0906,0.0912,0.0941,0.0926,0.0998,0.0993,0,0,0,0,0.0482,0.0501,0.0525,0.0578,0.0637,0.0745,0.0824,0.0865,0.0952,0.0869,0.1009,0.1001,0.1045,0.0924,0.0961,0.0961,0.096,0.096,0.096,0.0463,0.0509,0.0566,0.0652,0.0726,0.0852,0.0927,0.1012,0.1016,0.1074,0.1049,0.117,0.1047,0.1113,0.1113,0.1113,0.1113,0.1113,0.1113,0.0493,0.054,0.0626,0.0714,0.0835,0.0956,0.1062,0.1086,0.1175,0.1144,0.1188,0.0992,0.1115,0.1114,0.1114,0.1114,0.1114,0.1114,0.1114,0.0501,0.0533,0.0612,0.0747,0.0882,0.1007,0.1076,0.114,0.1178,0.1202,0.1117,0.1198,0.1142,0.1238,0.1238,0.1238,0.1239,0.1239,0.1239,0.0487,0.0558,0.0619,0.0766,0.0836,0.0941,0.1069,0.109,0.1156,0.1113,0.1215,0.1213,0.1209,0.1153,0.1244,0.1243,0.1242,0.1242,0.1242,0.0492,0.0515,0.0577,0.064,0.0764,0.0822,0.0964,0.1015,0.1055,0.1034,0.1088,0.1094,0.1083,0.1083,0.1021,0.1076,0.1074,0.1072,0,0.0464,0.0486,0.0523,0.0558,0.0607,0.0734,0.0731,0.08,0.0903,0.0901,0.1025,0.1085,0.1089,0.1072,0.1068,0.0994,0,0,0,0.0446,0.0456,0.0449,0.0493,0.0533,0.0615,0.0731,0.0734,0.0916,0.0857,0.1016,0.103,0.1048,0.1258,0.1257,0.1252,0.1164,0,0]},{"header":{"parameterUnit":"m.s-1","parameterCategory":2,"la1":30.2992,"la2":30.254,"lo1":-89.0895,"lo2":-89.0443,"dy":0.0025,"dx":0.0025,"nx":19,"ny":19,"refTime":"2026-05-08T03:00:00:Z","depth":"4","parameterNumber":3,"parameterNumberName":"V-component_of_CURRENTS"},"data":[0,0,0,0.0603,0.0603,0.059,0.059,0.055,0.055,0,0,0,0,0,0,0,0,0,0,0,0.062,0.062,0.0603,0.0603,0.059,0.059,0.055,0.055,0,0,0,0,0,0,0,0,0,0,0,0.0619,0.062,0.062,0.0603,0.0591,0.059,0.0551,0.0564,0,0,0,0,0,0,0,0,0,0,0.0578,0.0599,0.062,0.062,0.0603,0.0591,0.059,0.0565,0.0563,0.0551,0,0.0566,0,0.0554,0.0547,0.0547,0,0,0,0.0596,0.06,0.0598,0.0621,0.0603,0.0591,0.0594,0.0564,0.0562,0.0549,0.0565,0.0563,0.0553,0.0547,0.0547,0.0536,0.0536,0,0,0.0597,0.0611,0.0599,0.0597,0.062,0.0595,0.0594,0.0563,0.0569,0.0565,0.0562,0.0553,0.0547,0.0547,0.0536,0.0536,0,0,0,0.0603,0.0612,0.061,0.0599,0.0597,0.0594,0.0593,0.057,0.0571,0.0562,0.0552,0.0547,0.0546,0.0536,0.0536,0.0473,0,0,0,0.0603,0.0616,0.0611,0.0618,0.0599,0.0586,0.0601,0.0573,0.0569,0.0552,0.0547,0.0546,0.0535,0.0536,0.0475,0.0407,0,0,0,0.0617,0.0616,0.0622,0.0619,0.0616,0.0586,0.0585,0.0572,0.0563,0.0547,0.0546,0.0535,0.0536,0.0476,0.0411,0.0379,0,0,0,0.0621,0.0626,0.0623,0.0627,0.0616,0.0608,0.0585,0.0588,0.0581,0.0546,0.0535,0.0536,0.0476,0.0413,0.0381,0.0466,0,0,0,0.0623,0.0627,0.0627,0.0623,0.0594,0.0608,0.058,0.0572,0.0579,0.0542,0.0542,0.0474,0.0411,0.038,0.049,0,0,0,0,0.0623,0.0607,0.0608,0.0589,0.0597,0.0558,0.0574,0.0559,0.0529,0.0576,0.05,0.0462,0.0444,0.0503,0.0538,0.0538,0.0538,0.0538,0.0538,0.0595,0.0585,0.0553,0.0535,0.0538,0.0531,0.0494,0.0474,0.0521,0.0505,0.0432,0.0388,0.0452,0.0479,0.0478,0.0478,0.0478,0.0478,0.0478,0.0523,0.0478,0.0474,0.044,0.043,0.0417,0.0382,0.0394,0.0337,0.039,0.0377,0.0459,0.0472,0.0473,0.0474,0.0475,0.0475,0.0476,0.0476,0.0453,0.0425,0.0421,0.0367,0.033,0.0339,0.0307,0.0274,0.0256,0.0223,0.0332,0.0336,0.0317,0.0255,0.0255,0.0254,0.0254,0.0254,0.0253,0.0376,0.0362,0.0339,0.0292,0.0302,0.0293,0.0266,0.0263,0.0236,0.0242,0.0222,0.0312,0.032,0.0305,0.0247,0.0248,0.0249,0.025,0.025,0.0243,0.0291,0.0265,0.0278,0.0308,0.0313,0.0306,0.0294,0.0271,0.0242,0.0257,0.0258,0.0279,0.0287,0.0272,0.0201,0.0202,0.0203,0,0.0182,0.0187,0.0232,0.0292,0.0337,0.0351,0.0391,0.0382,0.0288,0.0269,0.0254,0.0269,0.0271,0.03,0.0308,0.0293,0,0,0,0.0091,0.0149,0.0183,0.0289,0.0372,0.0401,0.0405,0.0391,0.0296,0.0317,0.0224,0.0218,0.0344,0.0227,0.0262,0.0271,0.0248,0,0]}]]